Location: Cicognara
(44.9500°N, 10.4667°E)
Time: 23:27:20
(UTC+00:00)

SL-8 R/B - Pass Details

Date: 20 June 2021
Orbit: 656 x 667 km, 48.4° (Epoch: 23 July)

Event Time Altitude Azimuth Distance (km) Brightness Sun altitude
Rises 20:11:06 0° 291° (WNW) 2,995 8.4 -9.2°
Reaches altitude 10° 20:13:27 10° 289° (WNW) 2,079 7.3 -9.5°
Maximum altitude 20:18:13 68° 208° (SSW) 710 3.8 -10.1°
Enters shadow 20:22:20 14° 126° (SE) 1,826 5.3 -10.5°
